CAPE
2642 2366 2146 2170 2125 1894 1840 1630 1885 2010 2138 2274 2770 2937 2924 2537 2397 2285 2453 2917 2858 3049 3178 3082 2906 2834 2614 2541 2863 2800 2779 2893 2776 2599 2515 2561 2625 2717 2764 2786 2775 2701 2919 2941 2429 2392 2387 2572 2655 2499 2406 2372 2677 2692 2947 2831 3017 2962 2934 2920 3044 3021 2888 2802 2912 2835 3014 3001 2729 2756 2677 2828 2760 2746 2827 2668 2270 2116 2135 1911 1681 1418 2129 2192 1844
1702 2442 2188 2377 2113 2168 1887 1724 1873 2231 2390 2802 2835 2884 2938 3054 3098 3007 3080 3100 3008 2935 3131 3097 3056 2832 2658 2576 2844 2762 2992 3004 2843 2675 2580 2526 2526 2739 2771 2558 2493 2656 2686 2647 2351 2296 2422 2344 2440 2316 2215 2464 2778 2698 2697 2770 2815 2828 2799 2936 2982 2964 2898 2708 2628 2832 3255 3107 2805 2830 2909 2761 2606 2598 2670 2631 2644 2285 2007 2062 2222 2203 1749 2218 2236
1224 1929 1862 2283 2135 2243 2080 2114 2438 2530 2627 2785 2832 2575 2738 2830 2976 3084 2960 3056 2987 2929 2739 3155 3033 2755 2634 2775 2976 2870 2863 2877 2591 2596 2523 2547 2495 2337 2456 2503 2673 2590 2434 2412 2286 2193 2255 2263 2300 2228 2282 2324 2618 2563 2698 2762 2698 2786 2800 2942 3079 3045 3135 2958 3047 3074 2394 2540 3430 3271 3085 2884 2650 2678 2692 2692 2705 2628 2477 2589 2410 1797 2369 2405 1997
2165 1748 2047 2456 1938 1733 2052 2316 2604 2677 2713 2947 2654 2438 2690 2705 2769 2769 2807 2910 3192 3189 3076 2979 3012 2954 3015 2949 2594 2883 2980 2700 2544 2446 2436 2406 2458 2562 2585 2554 2572 2623 2437 2479 2403 2305 2268 2179 2231 2294 2381 2410 2477 2640 2490 2828 2753 2798 2798 2778 2970 3037 3147 3019 2801 2837 3041 3144 3333 2219 2085 2286 2465 2514 2353 2476 2443 2392 2492 2106 2047 2356 2428 2588 2566
1856 1725 1887 2512 2466 1771 1934 2505 2580 2814 2798 2783 2664 2378 2704 2552 2491 2398 2422 2353 2821 3023 3049 2808 2910 2947 2934 2745 2622 2668 2834 2588 2555 2174 2154 2205 2374 2522 2542 2526 2432 2533 1901 1855 2064 2436 2256 2234 2368 2434 2506 2486 2446 2653 2645 2954 2810 2683 2777 2922 3093 3134 3208 3142 2646 2482 2238 2142 1997 1674 1665 1926 2204 2404 2408 2284 2372 2204 2210 2350 2131 2395 2389 2678 2698
1727 1608 1433 1725 1804 2778 2393 2394 2583 2608 2656 2852 2559 2534 2487 2583 2510 2507 2461 2402 2416 2642 2698 2781 2957 2836 2674 2738 2617 2735 2783 2556 2165 1870 1876 2103 2316 2204 2431 2409 2385 2511 2559 2476 2444 2288 2291 2256 2452 2587 2594 2471 2580 2714 2819 2605 2836 2927 2958 3152 3130 3107 3198 2746 2837 2924 2462 2638 2140 1466 1473 1646 1917 1951 2195 2282 2284 2316 2317 2373 2258 2232 2470 2361 2462
1422 1389 1410 1534 1662 2293 2560 2458 2738 2581 2548 2557 2632 2587 2500 2392 2538 2465 2353 2351 2317 2236 2464 2725 2735 2656 2548 2577 2393 2522 2615 2292 1754 1683 1548 1876 2141 2268 1982 1928 1981 2124 2594 2598 2724 2674 2406 2450 2522 2456 2592 2496 2561 2866 2939 2843 2876 3133 3131 3338 3244 3344 3358 3438 3082 3072 2846 2737 2259 1354 1328 1425 1832 2130 2216 2156 2085 2043 1891 2508 2446 2233 2178 2129 1939
1480 1156 1462 1463 1046 2520 2781 2737 2559 2720 2586 2091 2270 2299 2188 2318 2217 2338 2318 2315 2210 2243 2364 2442 2575 2491 2312 2168 2249 2162 2444 1770 1613 1470 1606 2040 2357 2195 2148 2163 1952 2267 2496 2785 2673 2619 2575 2553 2592 2280 2104 2498 2951 3014 2845 2915 3049 3236 3302 3278 3233 3243 3330 3313 2956 3056 2733 2498 2062 1636 1446 1436 1734 1926 2268 2505 1901 2017 2180 2025 2603 2386 2245 2123 1890
1599 1446 1605 1119 1516 2736 2728 2545 2530 2483 2455 2566 2349 2265 2448 2285 2253 2322 2256 2112 2099 2132 2389 2333 2215 2118 2035 1991 2114 1847 1704 1595 1418 1466 1901 2085 2295 2265 2319 2021 2091 2241 2443 2642 2579 2495 2363 2371 2409 2451 2526 2765 2603 2909 2817 2730 2848 2879 3024 3182 3275 3229 3136 2928 2736 3098 2021 2472 1942 1714 1491 1268 1130 1810 2155 2211 2135 2547 2483 2032 2063 2356 2483 2292 2016
1358 1190 954 767 1523 2652 2550 2463 2558 2535 2530 2404 2299 2326 2054 2482 2327 2107 1712 2170 2118 2261 2300 2093 1942 1695 1491 1916 1988 1719 1478 1524 1224 1446 1644 1628 2112 2191 2454 2339 2037 2287 2412 2441 2479 2210 2398 3109 2844 2509 2827 2742 2866 2885 2818 2740 2778 2937 3081 3078 3180 3209 3061 2794 2418 2221 2290 1941 1818 2031 1897 1331 1596 1934 2261 2092 2178 1898 2072 2092 2518 2595 2458 2256 2252
1370 943 875 1122 1967 2581 2491 2586 2468 2476 2471 2209 2217 2253 2297 2127 2279 2235 2096 2259 2324 2188 2304 2069 1743 1594 1858 1830 1893 1787 1804 1406 1609 1648 1447 1740 1993 2147 2266 2133 1971 1922 1874 1940 2099 2226 2038 2220 2317 2901 2842 2697 2572 2593 2569 2656 2997 3105 3161 3141 3225 3147 3006 2841 2733 2275 2459 1516 1474 1404 1791 2034 2029 2102 2233 2190 1900 2084 2407 2348 2479 2402 2548 2277 2245
1312 1120 1222 2083 3096 2632 2498 2257 2022 1968 2069 2132 2158 2119 2264 2210 2064 2092 2221 2289 2298 2132 2193 2024 1807 1614 1656 1824 1904 1828 2066 2162 2337 2113 1998 2010 2239 2217 2330 2094 1864 1716 1577 1625 1746 2100 2130 2555 2621 2669 2539 2557 2595 2709 2846 3059 3152 2954 3129 2944 2880 2746 2489 2589 2272 2746 1906 1282 1187 1179 1284 1670 1877 2183 2176 2126 2049 2461 2122 2366 2346 2272 2348 2466 2251
1127 849 1253 1912 2538 2219 2120 2173 2253 2176 2323 2233 2146 2154 2183 2026 2204 2121 2002 1993 2035 2098 2041 2021 1875 1749 1694 1895 1952 1894 1886 1932 2008 1900 1884 2124 2052 2072 2023 1989 1823 1584 1514 1519 1728 2038 1822 2044 2534 2454 2508 2559 2695 2790 2978 2949 3062 2988 2896 2982 2842 2573 2094 1740 1829 1211 1353 1357 1460 1594 1662 1756 2216 2228 2174 2039 1916 2275 2199 2147 2289 2292 2343 2498 2348
677 644 918 1667 2198 2831 2300 2342 2266 2267 2190 2221 2158 2030 2116 1866 1836 1795 1918 2010 1984 1903 1957 1854 1928 1749 1777 1906 2059 2101 2088 1966 1844 2114 1955 2094 2178 1966 1711 1787 1592 1582 1552 1536 1719 1617 1992 2041 2242 2661 2550 2500 2571 2786 2870 2975 3098 3073 3008 3002 2974 2803 2473 1879 1124 1328 1365 1385 1655 1691 1830 2047 2490 2496 2440 2410 2330 2364 2325 2416 2382 2119 2233 2487 2382
450 1211 1468 2056 2110 2478 2454 2216 2146 2060 2218 2033 1802 1668 1734 1889 1819 1709 1671 1622 1781 1910 1635 1370 1930 1959 1735 1608 1694 2206 2167 2068 2070 2082 2013 2141 2160 2077 1881 1756 1662 1617 1593 1651 1724 1950 2316 2497 2618 2695 2599 2700 2696 2785 2856 2849 2786 2762 2622 2672 2681 2657 2373 604 826 1230 1371 1476 1384 1390 1662 2082 2356 2283 2490 2488 2482 2422 2470 2432 2372 2247 2303 2362 2364
750 1161 1637 1791 2335 2591 2625 2214 2082 1890 1799 1653 1691 1062 826 1125 1460 1309 1158 1256 1648 1694 1496 1412 1824 1791 1552 1665 1772 1952 1903 1966 1936 1835 2088 2091 2104 2076 1966 2025 2086 2094 2123 2226 1999 2156 2576 2419 2527 2543 2644 2594 2720 2871 2818 2670 2574 2574 2447 2252 2282 2339 2930 3663 934 1199 1354 1279 1157 1144 1079 1791 2299 2379 2419 2438 2530 2520 2534 2458 2437 2337 2264 2305 2177
832 1438 1409 1875 2322 2286 2057 2445 2274 2075 1656 1310 1087 1362 1262 1193 1094 1112 1085 1190 1333 1376 1526 1656 1748 1850 1579 1444 1738 1893 1818 1793 1850 2004 1921 2109 2097 2071 2148 2435 2300 2343 2242 2004 2118 2549 2536 2623 2823 3028 2690 2462 2888 2945 2978 2856 2650 2602 2482 2080 1898 2137 2779 3287 725 980 1307 1338 1136 1151 1443 1716 2215 2362 2448 2305 2210 2204 2184 2209 2102 2166 2282 2257 2224
1077 1489 1519 1752 2253 2176 2135 1736 2361 2153 1411 1398 1293 1111 1112 1108 1322 1414 1528 1437 1250 1599 1514 1481 1588 1600 1617 1659 1602 1553 1956 2007 1861 1893 1838 2097 1949 2162 2119 2265 2338 2370 2254 2274 2260 2207 2524 2861 3027 2947 2999 3031 2917 3028 3009 2859 2624 2416 2193 2094 1944 2191 2679 3699 1103 1288 1111 1049 1263 1318 1263 2413 2314 2424 2160 2050 2002 2084 2134 2274 2216 2128 2208 2167 2112
929 1261 1212 1764 1830 1973 1890 2346 2932 2632 1503 1368 1429 1377 1252 1202 1150 1405 1319 1412 1583 1566 1605 1628 1618 1533 1441 1528 1649 1757 1824 1514 1532 1821 2158 1967 1874 2028 2280 2330 2156 2400 2395 2565 2522 2560 2832 2857 2832 2834 2878 2861 2840 2907 2914 2830 2716 2440 2136 2170 2238 1876 3100 3140 1106 1482 1339 1089 1268 1296 1708 2259 2300 2316 2239 1959 1899 1964 2023 1990 2141 2145 2137 1999 2043
1095 1260 965 1403 1649 1901 2589 2594 2674 1939 1446 1156 1602 1487 1352 1374 1368 1420 1368 1578 1472 1456 1472 1573 1634 1626 1480 1505 1620 1841 1665 1128 1636 1697 2097 1935 1962 2260 2121 2140 2103 2220 2573 2591 2769 2830 2775 2763 2914 2928 2852 2730 2723 2840 2832 2828 2864 2566 2643 2781 1659 2876 2593 953 1010 1191 1309 1468 1574 1759 2414 2308 2060 2362 2220 2469 2313 2017 2148 1936 2146 2163 2055 2073 1942
1162 1441 1155 1279 1020 1775 2029 2500 2064 1782 1250 1486 1585 1715 1445 1515 1532 1397 1251 1387 1323 1516 1631 1683 1625 1431 1796 1590 1786 2095 1644 1462 1573 1932 1822 2260 1860 1885 1852 2132 2056 2454 2422 2269 2570 2433 2426 2531 2905 3004 2806 2798 2960 2858 2650 2615 2492 2645 2987 2053 2956 3030 890 1323 1542 1662 1524 1624 1525 2068 2609 2568 2403 2152 2414 2672 2571 2298 2180 2083 2191 2214 2356 2093 1974
1207 1597 1308 1323 1345 1089 1914 2064 2441 1864 1412 1916 1627 1561 1666 1554 1124 1433 1368 1615 1522 1578 1624 1916 1704 2018 1504 1998 2184 2076 1504 1243 1596 1724 2234 2119 1928 2105 2102 2189 2202 2417 2379 2260 2252 2518 2555 2667 2803 2951 2963 2880 2966 2755 2843 2806 2616 2640 2354 2940 2967 955 1110 1170 1245 1604 1608 1603 1933 2408 2546 2514 2436 2460 2471 2610 2509 2426 2363 2210 2335 2350 2471 2324 2175
974 1629 1416 1289 1479 2066 1847 2243 1858 2265 1910 1722 1406 1672 1702 1397 1508 1411 1612 1569 1520 1616 1780 1728 1816 2183 2349 2239 2250 2019 1698 1910 1867 2048 2133 1947 2187 2128 2185 2093 2325 2417 2047 2035 2392 2676 2759 2736 2859 2981 3148 3188 3297 3264 2710 2982 3087 3117 3164 2846 1975 906 1246 1354 1219 1297 1567 1668 1991 2670 2444 2511 2494 2613 2637 2593 2572 2449 2430 2453 2361 2336 2509 2410 2339
881 1532 1513 1409 1516 1639 1682 1878 2352 2246 2055 1114 1177 1903 1862 2564 2095 1693 1939 1786 1548 1617 1676 1597 1616 1547 1815 2377 2207 2089 1892 1852 2073 2120 2014 2056 1880 2243 2246 2233 2267 2213 2367 2410 2531 2685 2692 2764 2936 3205 3084 3489 3305 2025 1386 1738 2668 2910 2564 884 975 1061 1368 1336 1178 1046 1417 1585 1926 2546 2401 2376 2237 2380 2689 2485 2446 2590 2546 2442 2371 2432 2398 2424 2297
982 1753 1610 1618 1669 1878 2263 2297 2154 2312 2179 1783 2082 1583 1637 1617 1117 1681 2103 2134 1848 1544 1658 1622 1790 2035 2471 1734 1808 1777 1855 1849 2124 2149 2196 2077 2262 2316 2377 2514 2420 2517 2583 2378 2212 2610 2801 2747 2940 2975 3396 2426 2228 2024 1556 1247 1196 798 895 773 697 1187 751 520 837 1296 1914 1685 2251 2623 2691 2330 2273 2279 2285 2552 2493 2560 2520 2445 2303 2431 2426 2358 2310
1021 1746 1778 1738 1748 1889 2211 2372 1874 1914 1784 2134 1020 1882 2593 1468 1802 1722 1495 1944 1659 1737 2180 2212 2088 2340 2669 2006 2032 1963 1685 1896 1911 1935 1984 2150 2252 2173 2225 2534 2343 2258 2236 2148 2082 2417 2416 2774 2730 2529 2989 1504 1565 1221 924 592 551 529 528 651 528 647 404 674 1151 1456 1821 1692 2419 2517 2448 2628 2620 2328 2176 2658 2411 2487 2486 2406 2248 2412 2496 2425 2310
560 1422 1582 1099 1798 1850 2469 2217 1895 2093 1680 1555 1513 1733 1026 1354 1849 1584 2042 1667 1563 2046 2120 2175 2311 2584 1982 1764 2076 2040 1973 1307 1798 2578 2019 2104 2042 2229 2429 2325 2013 2070 2158 1892 2144 2365 2456 2282 2672 1952 1550 832 650 1078 981 786 595 495 549 680 697 612 683 745 1032 1032 1326 1273 1954 2566 2494 2304 2857 2614 2714 2575 2508 2472 2407 2498 2496 2454 2492 2417 2456
642 1060 1346 907 1417 1834 2414 2400 2352 2073 2168 1990 1916 1442 1247 1426 1437 1778 1407 1806 1995 1973 1846 1813 2020 2623 1657 1952 1106 1480 1925 2279 2456 2501 2503 2298 1720 1854 1648 1282 1513 1855 2327 2240 2434 2241 2480 2718 1846 1509 902 1045 992 749 342 746 663 755 774 759 713 875 1252 709 684 1101 1248 2431 2753 2670 1982 2835 2668 2947 2827 2773 2659 2616 2580 2661 2529 2656 2617 2736 2718
593 1134 1191 793 1177 1970 2176 2345 2372 2153 1881 1822 1776 1436 1178 927 1586 1956 1543 1339 1597 2242 1790 1952 2099 2516 2368 2608 1509 1519 2121 2401 2239 2355 2269 1914 1477 1506 1818 1800 1811 1792 2632 1808 2014 2531 2036 1576 1599 1433 884 966 723 783 705 615 503 547 569 742 626 1010 1044 1124 1131 821 1136 2218 1844 2100 2791 2608 2749 2986 3062 3104 2983 2990 3010 2795 2871 2920 3017 2964 3056
605 1039 1188 1179 946 1450 1809 2198 2202 2091 1855 1771 1833 1369 1088 1758 2034 2196 1642 1744 1828 1490 2022 1647 1796 2105 2136 2324 1620 1837 1739 1710 1692 1466 1367 1708 1652 1774 1707 1435 1547 1958 2351 1942 2112 1992 1701 1427 1473 1135 822 674 496 562 567 616 597 534 852 1089 908 873 958 1380 1540 1218 1203 994 1449 1786 2740 2627 2842 2763 2976 3127 3363 3490 3413 3325 3256 3319 3384 3459 3374
578 967 1198 1290 1314 1278 1652 2087 2208 2078 1932 1894 1812 1532 1591 1683 1918 2023 2108 1924 1613 1720 1625 1630 1659 1588 1901 2596 1719 1247 968 932 1096 1191 1372 1735 1920 1896 1925 1704 1540 1657 1844 1954 1960 1899 1915 2024 1074 1101 914 675 482 531 570 288 396 514 667 633 428 857 1224 1254 1722 1496 1028 1357 2012 2461 2395 3305 2506 2830 2933 3025 3084 3139 3336 3549 3479 3389 3716 3769 3819
633 941 1126 1014 1056 1261 1507 1711 1889 2048 1897 1734 1648 1554 1888 1951 1908 1967 2035 2183 2042 1759 1403 1206 1162 1508 1105 1110 989 782 905 1117 1434 1796 2016 1898 1902 1905 2012 1971 1860 1941 1983 2036 1957 2017 1922 1772 2478 2720 2122 1392 555 429 590 501 646 221 540 455 602 872 1282 1499 645 403 496 1296 1581 1969 3099 2894 3216 3119 3013 3089 2998 2831 2840 3169 3614 3594 3508 3792 3988
675 870 965 1166 1089 1036 1408 1689 1707 1810 1702 1538 1358 1450 1345 1432 1698 1993 2182 1783 1658 1227 752 745 1025 1362 1553 1645 1464 1477 1752 2258 2350 2249 2073 2041 1986 2166 2001 2099 2251 2266 2303 2031 2291 2568 2392 1259 1935 2772 2949 1633 1010 482 707 669 530 513 682 530 779 587 556 632 958 1036 795 1136 1999 1814 2373 3565 3368 3737 3714 3472 3280 3229 3272 3258 3286 3803 3819 3890 4105
721 813 868 1043 1072 927 1246 1376 1378 1654 1617 1588 1553 1476 1526 1512 1470 1781 2046 1727 1463 967 828 1161 1440 1431 2017 2118 2273 2572 2708 2847 2774 2509 2094 2222 2290 2252 2338 2478 2324 2106 2543 2683 1935 2163 2449 1985 1548 1797 1716 1875 1074 1259 1131 841 573 667 1004 519 652 807 1140 1207 1128 195 1242 1131 1230 1824 2180 2487 3228 3868 3660 4080 3844 3838 3829 3697 3769 4173 4257 4060 4218
659 582 1070 1190 1017 957 1147 1289 1394 1425 1761 1593 1701 1666 1561 1349 1252 1414 1775 1394 1100 940 953 1258 1418 1560 1894 2549 2734 2666 2721 2741 2725 2700 2078 1997 2115 2236 2272 2335 2372 2483 2437 3083 2670 2525 2392 2199 2649 2505 2696 2177 1866 1536 1247 957 464 66 782 1176 785 643 1400 787 736 365 797 1005 1423 1113 1706 1839 1984 2184 3453 3756 4172 4060 4192 4316 4196 4265 4109 4237 4310
724 857 1114 863 1112 1201 1216 1303 1300 1428 1703 1798 1880 1818 1643 1589 1640 1692 1731 1398 1072 1063 1370 1440 1433 1594 1770 2276 2592 2721 2608 2617 2870 2915 2763 2246 2110 2330 2585 2892 3030 2648 2604 3308 3052 2210 3007 3380 2622 2758 3465 2709 2375 1618 1370 825 925 765 587 604 432 718 1022 964 1150 975 594 1228 1219 1798 1794 1828 1645 1726 2535 2204 3746 4094 3416 4365 3923 3798 4491 4421 4208
714 947 848 1055 1084 1116 1207 987 1373 1440 1471 1649 1878 1963 1909 1474 1263 1407 1539 1483 1430 1452 1384 1409 1557 1943 2086 2084 2999 3215 3729 3882 4213 3723 2821 2348 2472 2615 2760 3276 3288 2992 3842 3959 2529 2525 3224 2583 3496 2926 3014 4287 2651 1646 965 1105 750 915 516 874 568 808 961 567 856 485 598 1019 1673 942 1343 583 1656 2679 3576 2163 2618 3055 3383 3703 4022 4105 4103 3920 3711
740 953 1018 1043 950 934 1108 1139 1401 1400 1728 1892 1929 1956 1785 1693 1590 1354 1545 1275 1260 1396 1538 1701 2015 2275 2195 2718 3427 3234 3611 3392 3994 4097 3283 1935 2256 2242 2821 3120 2894 2515 3631 3047 2642 2201 2720 2582 3351 2947 3434 3900 3221 1804 1496 1057 480 818 810 459 1221 870 383 710 809 742 611 622 917 952 971 938 872 1217 1465 1614 1530 2934 3181 3775 3939 3832 3601 3947 3764
699 904 1204 1386 994 1068 1530 1393 1336 1488 1565 1822 2305 2100 1762 2044 1449 1405 1960 1567 1526 1391 1527 1714 1375 1520 2432 2815 3038 3023 3275 3700 3795 4074 2993 2336 2492 2603 2955 3804 2926 3933 3776 3522 2458 2722 2855 2848 2964 3047 3898 3724 2184 1333 818 566 931 1066 341 440 407 1285 1018 496 1291 1369 1110 855 721 960 667 1049 943 1300 1618 1929 2058 2291 2716 3267 4265 4255 3790 3818 4306
810 767 1250 1576 1360 1740 1650 1294 1628 1637 1718 1870 1965 1714 1855 2004 1379 1598 1800 2078 1923 1663 1774 1663 1851 1994 2135 2397 3356 3288 3290 3546 3819 4294 3743 3055 2600 2857 3139 3176 2883 3210 3521 2779 1874 2768 3138 3722 3138 2900 3826 2935 1748 1010 614 879 390 541 495 608 1012 1174 1609 1183 1231 828 729 489 944 940 816 535 744 933 1145 1236 1392 2381 2928 3015 2902 3137 3677 3848 3724
1131 926 1080 1710 1807 1973 1459 1501 1877 1670 1631 1570 1887 1662 1669 1853 1824 1333 1704 1841 1906 2022 1902 1785 1868 1787 2086 2606 3110 2938 3578 3676 4027 3669 3473 3482 3412 3382 3418 3562 3044 3239 3627 3443 3094 3084 2682 3179 2792 3342 2616 2370 1664 383 472 1074 501 765 891 620 745 753 882 1046 1004 802 745 460 368 433 586 757 916 1371 1613 1890 1958 1972 1688 2176 2189 2090 3148 4629 4871
1484 1127 1113 1596 1656 1910 1638 1504 1814 1457 1716 1709 2114 2073 1998 1962 1650 1458 1487 1865 2038 1895 1885 1768 1800 2464 3228 2632 3208 3114 3391 3693 3531 4130 3466 3178 3448 3213 3356 3705 3719 3401 3728 3609 2768 2702 3015 3634 3098 3611 2615 1783 1026 982 942 1685 859 290 664 918 668 574 620 425 581 454 635 396 245 376 822 846 734 1396 1749 1582 1238 1216 1600 1947 2274 1848 2798 2924 3057
1538 1030 1566 1438 1605 1914 2149 2238 2143 1590 1986 2093 2206 2482 2196 1953 1785 1498 1354 1712 1717 1575 1653 1796 1810 2304 2796 2968 3478 3618 3560 3436 3675 3561 3240 3265 3305 3411 3321 3712 3930 3062 3152 3232 3236 2873 3322 3381 3653 3084 2999 1486 814 993 1776 1811 783 1010 721 546 471 455 496 495 532 309 334 404 422 343 555 570 724 1018 1336 1172 1208 1857 1704 2091 2059 2123 2876 2578 2782
1406 767 1452 1533 1323 2188 2529 2598 2471 2283 2231 2422 2118 2288 2419 2802 2458 1922 1344 1287 1761 2146 2278 2046 1913 2119 2459 2892 3431 3638 3236 3072 3175 3072 3003 3227 3070 3325 2784 3117 3454 4116 3998 3696 3614 3257 2719 3930 2860 3186 3776 3225 1029 1162 1057 1627 2421 1254 941 1396 886 308 643 736 761 281 205 283 310 321 476 504 681 1159 1018 912 1098 1582 2104 2175 1963 3128 2844 3069 3033
1106 1426 1108 1684 1002 2018 2246 2868 2771 2403 2595 2706 2715 2795 3210 3154 3021 3047 2657 2829 2306 2384 2442 2370 2396 2438 2382 2814 2858 3321 3349 2950 3006 3187 2848 3294 3391 3436 3416 3143 3454 3321 3512 2983 4051 3193 3356 2440 2929 3330 2526 2353 989 1094 1122 1470 2086 2289 2318 1817 978 1498 1202 732 381 922 682 250 245 9 444 443 444 681 747 850 960 819 1174 1634 1964 1946 2572 2908 2968
1044 1280 961 1222 1239 1700 2245 2834 2480 2554 2725 2668 3417 2986 2492 3004 3073 2825 2399 2231 2506 2245 2247 2309 2426 2394 2080 2153 2706 2734 2868 3182 3030 3138 2986 3130 3320 3496 3394 3184 3072 3199 3290 3063 3082 2364 3274 3347 2342 2705 2579 2384 1870 1139 934 1162 1142 1688 1995 2068 1485 1924 1722 746 637 848 913 737 286 128 518 501 408 903 1308 903 926 619 922 1230 1148 1570 2198 1947 1858
900 1215 928 924 1526 2082 2235 2506 2366 2558 3022 2853 3633 3148 2822 3294 3165 2554 2465 1822 2319 2001 2165 1663 1888 1676 2018 2288 2488 2746 2908 3033 3048 3139 3177 3279 3356 3331 3464 3293 3060 3089 2932 2725 2511 2869 2274 3156 3200 3272 3236 3165 2442 1884 1432 1309 1777 1807 1400 1208 1660 1438 1190 1356 1245 471 533 611 1003 532 274 450 684 657 738 774 878 740 623 1123 1241 1075 2073 2177 2097
712 1048 827 915 1316 2429 2394 2292 2152 2323 2820 2738 3398 3346 3132 3501 3123 2338 1842 1903 1555 2410 2448 2067 2036 1934 2372 2350 2451 2465 2736 2826 2707 3170 3275 3125 3265 3131 3345 3405 3184 3017 2436 2534 3006 2892 3063 3152 3003 2829 3206 3428 3151 2672 2572 1622 1457 1645 1910 1892 957 544 1018 1105 1310 1328 1539 612 615 705 656 449 561 496 714 445 886 1127 1083 943 1018 1375 1380 1558 1614
520 809 908 1117 1057 1768 2571 2284 2233 2328 2931 3274 2932 3112 3247 3680 3280 2744 3360 1903 2267 3344 2010 1867 2229 2376 2556 2594 2576 2429 2723 2569 3072 2918 3004 3093 2897 3256 3247 3448 3154 3138 2392 2933 2664 2836 3016 3391 3003 3342 3036 3095 3582 2569 3070 2530 2223 1322 2201 2597 2337 2100 1295 956 717 711 1713 1684 566 597 550 573 267 531 144 578 655 1046 1316 1352 1856 1573 2252 1855 1594
491 660 808 1364 1420 2159 2776 2446 2664 2417 2733 3225 2970 2811 3174 3263 3250 2442 2474 2097 2355 2427 1812 2280 2906 2925 3534 3562 3286 3087 2537 2486 2634 2856 2748 3214 2807 3104 3040 2951 3249 3048 2219 2512 2929 3270 3339 2996 3106 3409 3758 3736 3170 2819 2762 2568 2578 2230 2066 2015 2693 1717 1990 1754 1594 1050 818 982 1034 956 951 969 1124 764 671 580 553 770 616 955 1158 1374 2019 2513 1540
550 409 526 1322 1806 2212 2595 2501 2750 2747 3117 3260 3170 2703 2950 3083 2644 3059 2630 2612 2682 2877 3090 3162 3672 3847 3229 2932 3279 3159 2680 1998 1595 2182 2632 2667 3017 2949 2933 3015 2616 3169 2630 3508 3002 2736 2564 2406 2426 3194 3044 3625 2879 3370 2050 1595 2226 1716 1754 1776 2155 1647 1350 1837 1070 1215 1222 1290 1568 1194 760 596 850 810 693 567 535 931 1018 921 814 900 1770 2286 1121
Wind_Speed
6 5 5 5 9 8 6 5 3 5 6 3 4 4 5 6 10 11 10 5 3 3 6 7 7 7 7 6 7 11 13 12 13 13 12 9 7 8 7 6 5 6 7 7 7 8 7 7 7 7 7 8 8 7 7 6 6 6 7 6 5 4 3 2 4 3 2 0 2 3 2 2 3 3 2 4 5 4 3 4 4 5 5 8 9
6 5 4 4 6 8 6 5 8 5 3 3 4 4 5 7 8 9 8 6 6 7 7 7 7 7 5 4 7 12 13 12 12 11 10 8 8 8 8 7 7 7 7 7 7 7 6 6 6 6 7 8 7 7 7 6 6 6 7 5 4 3 1 4 4 3 2 1 3 3 4 4 3 3 4 5 6 6 7 5 5 4 6 9 9
4 5 3 3 5 7 8 5 1 1 2 3 3 3 5 7 9 9 8 7 7 8 8 7 6 6 5 5 8 13 13 13 13 11 9 9 10 12 10 8 8 8 7 7 7 6 6 6 6 6 7 7 7 7 7 6 5 6 5 4 2 1 4 5 4 4 1 2 5 6 6 5 4 4 4 4 5 5 7 8 7 7 5 6 5
5 3 3 3 2 5 9 5 2 3 2 2 3 3 5 7 8 8 8 7 7 7 8 9 8 8 7 7 11 13 12 13 13 11 11 12 11 9 9 9 9 8 8 8 7 5 5 6 5 6 6 6 6 6 6 6 6 5 4 2 1 4 5 5 5 6 9 13 11 6 5 4 3 4 4 4 4 5 6 6 8 6 5 4 4
4 3 3 4 4 4 8 4 2 3 2 2 2 4 5 6 7 8 8 7 6 6 8 10 10 11 11 10 11 12 11 12 15 12 13 11 10 8 10 10 9 8 8 8 7 5 5 6 5 5 5 5 5 6 6 6 5 4 3 2 4 6 6 6 7 7 6 7 4 6 5 4 4 4 3 4 4 4 4 3 3 3 3 4 4
5 5 5 4 4 5 6 1 1 0 1 2 2 4 6 6 7 7 8 8 7 7 9 10 10 12 13 13 11 12 11 13 15 12 11 9 6 9 10 9 9 12 11 11 9 6 6 5 5 4 4 4 5 5 5 5 4 3 3 5 7 6 7 7 9 9 13 14 12 6 5 5 5 4 3 2 2 2 1 0 1 1 3 5 6
6 4 5 6 4 1 1 1 2 3 2 2 3 4 5 6 7 7 8 9 8 9 10 9 10 12 12 11 11 11 11 13 16 9 9 6 9 9 8 8 13 11 9 10 10 8 6 5 5 4 3 3 4 4 3 3 3 3 4 7 8 8 8 8 8 9 12 14 10 6 6 5 5 4 1 2 3 3 3 3 3 4 5 5 5
5 4 4 3 2 3 1 3 5 4 3 3 3 5 5 5 5 6 8 9 10 10 10 10 11 12 12 11 11 11 12 14 13 10 8 8 11 13 14 13 11 8 11 10 10 10 8 6 5 5 3 3 3 4 2 2 2 3 7 8 8 9 10 10 8 8 8 10 9 7 5 4 3 4 3 4 5 6 6 6 5 5 4 5 7
3 1 4 3 4 5 5 5 5 4 3 2 3 3 5 4 5 6 7 9 11 12 12 12 12 12 11 11 11 13 15 10 7 11 11 12 13 14 14 10 11 11 12 11 11 11 9 7 6 6 5 4 4 3 3 3 4 6 9 9 9 10 10 8 8 14 5 8 7 6 4 4 4 4 4 6 7 7 8 9 8 5 5 5 7
6 6 4 4 5 7 6 6 4 2 2 2 2 2 3 4 4 5 7 10 11 12 12 12 13 13 11 11 12 13 10 7 7 14 13 12 14 14 13 12 11 12 11 11 12 10 7 6 5 6 5 5 4 4 4 5 6 9 10 10 11 12 13 9 12 5 6 6 5 2 3 3 5 7 7 8 8 8 7 5 6 5 7 8 9
3 2 3 4 6 7 6 5 3 2 2 1 2 2 2 3 4 5 7 9 10 10 10 12 13 14 15 12 11 11 10 8 10 14 14 14 15 17 16 14 14 14 12 13 13 7 6 5 5 4 5 5 5 5 5 7 9 11 10 11 12 14 13 10 20 6 7 7 6 5 2 4 8 10 8 9 9 8 6 5 4 6 7 9 9
3 3 3 4 7 6 4 2 1 2 2 2 2 3 2 3 4 5 6 8 9 8 9 10 12 14 16 12 9 12 14 13 12 15 17 17 17 17 17 16 15 14 10 10 8 8 7 6 5 5 5 6 7 7 7 9 11 11 11 12 12 13 11 6 9 8 6 5 4 5 6 8 9 10 9 9 8 8 6 6 6 7 9 8 9
5 4 4 6 5 5 4 2 2 1 2 4 4 4 3 3 4 6 7 8 8 8 8 10 11 14 14 11 10 13 15 15 14 16 18 18 17 17 17 17 15 14 8 6 5 11 9 7 6 6 7 7 7 7 8 10 12 11 12 12 12 13 11 9 9 7 6 5 5 8 9 10 10 10 10 10 9 8 8 7 8 8 7 8 9
6 3 3 3 2 6 5 3 1 2 3 5 5 4 3 3 5 8 9 8 7 8 8 9 10 12 13 12 11 11 14 16 15 15 17 17 18 17 17 17 15 13 6 2 1 9 6 6 7 7 8 7 7 7 9 11 11 12 12 13 14 17 19 18 5 7 6 5 7 9 11 12 12 11 11 11 10 9 9 8 8 7 7 8 9
4 6 3 2 4 3 6 4 2 1 3 5 5 5 3 3 6 10 8 6 6 7 8 9 11 12 11 11 11 11 14 16 14 15 16 16 17 17 16 15 13 9 3 2 2 6 7 8 9 9 9 8 7 8 11 12 11 11 12 14 14 19 22 9 9 7 8 9 11 11 11 12 11 11 11 11 11 10 9 8 7 7 7 7 9
7 6 4 5 4 5 4 4 3 3 4 9 11 4 8 6 7 9 6 4 4 7 8 9 9 10 11 12 9 9 12 14 13 12 13 14 15 14 13 12 9 5 1 2 6 7 7 7 9 10 10 10 9 10 11 11 11 10 11 12 16 19 21 20 8 8 10 12 13 13 12 13 12 12 12 11 12 11 10 8 8 7 8 9 10
6 6 7 6 7 6 5 3 4 5 8 14 6 5 7 6 8 6 4 3 3 4 7 9 8 9 10 12 9 9 11 12 12 9 10 11 11 10 8 9 9 6 5 8 5 8 8 9 11 13 12 10 10 12 12 11 11 11 10 13 16 16 22 25 8 8 12 14 14 15 14 14 13 13 13 13 13 12 11 9 8 9 10 10 11
3 9 9 8 7 5 3 5 4 4 6 10 5 9 3 5 8 7 5 3 4 5 7 9 8 9 9 10 9 9 10 11 9 6 7 8 9 7 7 8 8 8 7 6 5 9 11 12 13 13 13 12 13 13 13 12 12 11 11 13 17 17 24 27 7 10 14 15 14 14 15 14 14 14 14 15 14 12 11 10 10 10 11 12 13
4 4 8 7 5 5 2 4 2 3 11 8 7 7 5 6 6 8 8 7 5 7 8 8 8 9 11 10 10 9 7 10 7 3 4 6 7 6 7 6 6 6 6 7 10 13 15 15 15 14 14 13 14 14 12 12 11 11 11 15 17 22 25 23 10 11 15 16 15 15 15 16 16 16 16 16 14 12 12 11 11 12 13 14 15
7 6 2 5 5 4 1 2 3 2 9 5 3 5 5 7 8 9 8 6 5 7 6 8 8 9 8 9 8 7 7 7 5 1 1 5 5 5 6 6 7 8 8 10 12 14 16 17 16 14 13 14 14 13 12 11 10 11 14 15 20 23 24 12 11 12 15 16 16 15 15 17 17 17 16 16 16 13 13 12 13 14 14 15 17
7 7 4 4 6 7 3 3 1 3 9 9 6 5 3 6 6 9 7 5 5 7 7 7 7 7 6 4 4 3 2 2 2 5 2 3 2 3 4 6 8 10 10 11 14 14 15 15 15 15 14 13 13 11 10 10 10 12 15 18 22 23 15 15 12 13 15 15 15 15 16 18 19 19 17 18 17 15 13 13 14 15 16 17 18
7 7 7 3 5 5 6 2 2 5 7 6 5 6 6 3 3 4 5 5 6 6 5 7 7 7 5 7 9 9 7 5 8 8 9 7 6 4 7 8 10 12 13 15 17 18 19 18 17 17 16 16 15 13 10 10 10 13 16 22 22 15 16 14 14 14 15 15 15 15 17 19 19 19 18 17 17 15 14 14 15 16 18 19 19
5 8 7 5 4 3 4 2 3 5 6 4 3 5 10 9 6 4 5 6 4 4 7 7 7 8 9 9 11 10 9 9 9 10 12 9 9 9 9 10 12 13 14 16 19 20 19 18 18 19 20 19 19 18 12 11 10 13 18 21 17 12 14 17 14 15 16 15 15 15 18 19 20 18 18 17 16 15 15 16 17 18 19 20 21
4 9 6 6 5 4 3 4 4 4 2 4 8 5 6 9 7 6 7 8 6 6 7 8 8 8 9 10 11 11 10 10 7 6 10 13 13 10 11 12 14 16 16 19 19 20 19 20 21 22 23 19 19 16 12 12 11 13 15 13 13 14 16 16 14 16 16 15 15 16 18 19 19 20 18 17 16 16 16 18 18 19 20 21 22
3 7 6 5 3 3 3 4 2 4 4 4 4 5 9 7 9 9 9 8 6 7 8 7 8 10 10 11 12 13 11 10 11 13 14 15 15 16 16 18 20 20 20 21 21 20 20 19 20 22 21 20 18 15 14 12 14 12 14 12 14 15 13 14 18 17 15 15 15 17 19 19 18 18 18 16 17 17 18 18 20 20 20 21 23
2 6 5 5 4 3 3 3 2 2 4 9 4 8 12 7 6 7 10 9 8 10 11 10 9 9 11 10 10 10 12 13 14 13 13 15 18 18 18 19 20 21 23 22 21 20 20 21 22 21 21 16 17 16 16 14 12 12 12 13 13 14 14 15 15 18 16 14 15 17 19 18 19 18 18 18 17 18 19 20 19 21 22 22 23
3 6 5 3 4 3 2 4 2 3 2 3 6 4 1 4 7 6 9 9 10 10 9 10 11 10 9 11 11 12 14 13 13 13 12 16 18 19 19 20 21 22 21 20 20 20 22 23 23 20 18 15 13 14 14 16 15 10 11 13 14 14 15 15 15 16 16 14 14 16 19 19 19 19 18 18 18 18 20 21 21 22 22 22 22
3 4 5 3 4 4 3 1 3 3 3 2 2 3 4 7 3 7 9 10 9 11 10 9 10 12 9 14 10 11 12 13 14 13 15 18 18 18 20 20 20 20 20 18 19 22 22 23 20 19 19 18 14 12 12 12 15 13 10 12 13 15 15 14 15 18 15 14 14 16 18 19 19 19 19 18 20 20 22 23 23 23 23 23 24
2 3 4 4 7 4 4 2 2 2 2 2 2 4 1 4 6 5 4 2 9 11 7 9 9 10 12 14 11 8 12 13 15 17 18 18 16 17 22 19 19 20 21 20 21 22 22 19 18 16 16 15 13 12 13 12 13 12 11 11 11 14 14 14 16 18 16 14 13 14 18 18 19 19 19 20 21 23 24 24 24 25 25 25 26
1 2 3 4 3 5 3 2 1 2 2 2 3 2 1 1 2 3 5 7 4 9 10 8 8 10 11 15 10 10 9 14 16 17 16 16 17 17 15 17 19 20 21 20 21 21 20 18 17 16 13 14 14 14 15 14 13 12 14 13 12 12 13 13 16 15 14 14 12 13 17 18 20 20 20 21 23 25 25 25 26 26 27 27 27
1 2 2 3 3 3 2 1 1 3 3 3 3 2 2 2 2 3 3 5 9 11 5 5 7 6 12 14 11 11 11 11 12 13 15 17 18 17 16 16 16 17 21 21 22 20 20 17 15 15 14 14 14 14 14 13 13 12 13 12 12 12 14 13 15 13 12 14 12 12 13 18 19 20 20 22 24 26 27 26 26 27 28 29 29
2 0 2 4 4 3 2 2 1 3 4 3 3 3 3 3 3 2 2 2 3 1 3 3 4 6 8 9 10 11 11 11 12 14 15 16 16 16 16 18 19 20 21 21 21 19 17 16 15 16 17 16 13 13 16 12 12 10 12 12 14 13 12 16 12 14 12 12 14 12 12 13 18 20 21 22 24 25 26 27 27 28 30 30 30
2 1 1 3 2 1 1 1 0 1 2 2 3 3 4 4 3 2 2 3 3 2 2 2 4 6 9 10 10 10 12 13 14 14 14 15 15 15 16 17 19 19 19 17 18 19 19 14 12 11 12 12 15 13 16 13 13 13 13 11 11 11 12 11 13 13 9 10 12 12 11 11 12 17 20 21 22 23 24 25 26 28 29 30 30
2 2 2 1 1 2 3 1 0 0 2 3 4 3 5 5 4 4 3 3 2 1 2 3 5 6 8 9 10 12 13 14 14 14 14 14 15 16 16 18 18 17 18 18 16 15 16 14 14 14 10 10 12 12 15 15 11 11 11 11 11 12 13 11 12 9 15 10 11 13 11 11 10 11 14 18 19 20 22 23 25 26 27 27 27
2 0 1 2 1 2 2 2 1 1 2 3 4 3 4 4 3 5 4 3 3 3 3 5 6 7 8 10 11 13 13 14 15 16 15 15 16 16 16 16 16 16 15 14 16 16 17 16 10 13 16 15 9 12 15 14 11 nan 12 14 10 10 13 8 13 9 12 12 13 11 13 12 11 11 10 9 14 18 18 20 23 23 23 23 23
2 2 3 1 1 2 2 1 0 0 2 3 4 5 4 5 5 5 5 5 5 5 6 7 8 9 10 10 12 13 14 14 16 18 19 20 16 16 16 15 13 13 14 15 14 11 12 11 11 9 10 13 13 11 13 13 13 8 9 10 9 11 10 10 11 10 7 10 10 10 11 11 11 9 11 7 9 9 14 17 18 19 19 18 17
4 3 2 3 2 2 2 1 1 1 1 2 3 5 4 3 4 5 6 7 8 9 7 10 10 11 12 12 13 14 15 17 18 19 19 17 15 14 12 12 12 12 15 13 10 10 10 11 10 11 9 11 15 10 14 13 10 10 7 9 8 13 9 10 9 7 8 9 11 9 7 8 10 7 11 8 6 5 11 14 14 15 15 12 12
5 4 3 3 4 3 2 2 3 1 3 3 3 3 4 5 5 5 9 8 9 11 11 12 13 13 13 14 15 15 16 16 18 19 20 14 12 11 9 9 7 6 10 12 11 6 5 8 10 9 9 11 13 10 12 12 10 7 9 5 11 8 7 9 9 9 5 6 11 11 11 10 9 11 10 9 7 5 7 10 12 13 10 10 9
3 5 4 5 5 4 6 3 1 2 2 3 4 5 4 6 5 5 8 10 11 11 13 13 11 14 13 13 15 15 14 15 15 16 14 12 11 9 8 10 8 8 10 13 8 10 11 8 9 6 9 15 11 11 11 13 9 10 4 5 6 11 10 7 8 9 9 7 8 9 4 6 7 7 8 6 5 8 9 4 8 7 5 8 7
4 6 5 5 5 5 5 3 2 3 3 3 4 4 5 5 5 5 7 9 10 11 13 12 14 11 10 11 13 12 12 12 13 13 13 12 9 9 7 8 7 5 8 11 9 9 6 7 9 7 7 9 11 7 9 10 7 10 11 7 7 7 10 9 9 5 6 4 4 10 4 8 10 9 12 12 9 9 8 9 8 7 2 7 7
6 6 4 4 4 5 4 3 4 3 3 4 5 5 5 5 5 5 6 7 8 9 10 10 11 9 8 8 9 9 9 9 9 10 10 10 9 7 7 8 6 3 5 8 6 8 7 8 6 7 7 5 7 3 8 10 7 7 7 7 6 5 4 5 9 7 7 3 5 7 7 4 4 9 9 10 6 4 6 5 6 10 4 4 5
6 4 3 4 3 4 5 4 5 4 4 4 6 7 7 7 6 5 5 6 6 7 8 9 7 6 7 6 8 6 6 7 6 7 6 7 7 5 5 6 5 4 5 5 5 6 6 7 7 6 6 6 5 9 7 12 8 3 3 6 7 7 6 8 9 4 5 4 4 5 7 4 8 5 8 5 7 7 8 5 7 5 7 7 5
6 4 3 4 3 5 6 6 6 5 4 5 5 6 6 7 8 7 6 6 6 6 5 7 5 3 3 4 5 4 4 4 4 3 4 5 4 3 3 4 4 3 5 5 4 4 6 6 6 6 9 7 5 5 5 13 6 8 9 4 2 2 7 10 11 8 5 4 4 5 3 6 9 6 5 6 4 4 7 6 8 9 7 4 4
7 6 4 4 4 7 7 7 6 6 6 6 5 5 7 9 10 9 10 8 7 9 7 5 4 2 1 1 2 2 3 2 2 3 2 2 1 3 3 2 2 3 3 4 4 4 4 6 4 4 3 8 3 5 6 9 14 8 2 5 3 1 0 7 6 5 5 8 1 2 2 5 5 2 6 3 5 8 7 9 9 11 7 8 2
7 6 5 4 5 6 7 7 7 7 7 6 5 6 7 7 9 10 9 11 8 7 6 3 4 3 2 1 1 1 2 1 1 2 1 1 0 2 1 1 1 3 2 2 5 3 4 3 6 6 5 8 3 4 9 8 8 11 8 8 5 5 8 3 4 12 13 3 7 nan 9 6 8 6 7 5 7 6 10 11 10 8 8 8 4
7 7 6 5 6 8 8 7 8 7 6 5 6 6 6 6 6 5 5 5 5 4 4 3 2 1 0 2 3 3 3 2 2 2 1 2 1 0 1 1 2 1 3 5 4 3 4 3 2 5 6 5 8 6 5 7 7 6 4 1 7 7 8 12 9 8 10 12 4 6 2 4 5 4 5 6 12 9 8 13 10 10 8 6 8
8 8 6 8 8 10 9 7 8 7 7 6 7 7 7 6 4 4 5 5 5 6 6 4 3 2 3 2 2 3 4 4 4 3 2 1 1 0 0 3 1 1 2 2 3 7 1 5 4 3 4 6 6 6 6 6 8 5 4 5 8 5 3 5 8 4 4 10 10 4 6 1 4 5 5 11 14 13 9 8 10 11 8 4 7
10 9 7 11 10 10 10 8 8 8 9 7 8 8 7 6 5 5 6 8 8 8 7 6 5 4 3 2 2 2 4 4 4 4 3 2 1 1 1 3 3 1 1 3 6 5 6 4 4 5 4 4 5 7 9 7 4 6 10 6 4 4 6 7 7 9 6 5 4 4 6 10 10 8 5 8 12 13 12 9 10 8 6 7 7
11 10 9 12 12 11 12 9 9 8 10 9 8 8 8 7 6 8 12 14 9 7 5 6 7 4 3 2 2 3 3 4 3 5 4 3 2 3 3 3 3 3 3 3 5 2 3 3 3 3 2 2 3 6 6 7 8 6 6 8 8 5 2 2 3 4 8 4 3 7 6 11 6 8 6 8 10 13 15 14 11 7 6 7 6
11 12 12 12 13 13 12 10 10 9 10 10 9 8 7 7 7 9 8 7 5 6 5 7 4 5 3 4 2 1 3 4 5 5 4 4 4 3 4 4 3 4 5 5 5 4 3 2 3 3 4 4 4 2 3 5 7 8 5 5 5 7 7 7 5 4 5 7 9 4 6 7 9 7 5 9 6 11 9 16 11 10 5 5 4
13 14 13 12 12 14 13 11 11 10 11 11 9 7 8 7 6 12 5 5 6 5 10 6 5 5 3 2 2 3 1 3 4 4 5 5 4 4 5 3 5 2 4 5 4 4 2 2 2 1 2 2 1 3 3 4 5 6 6 4 4 1 4 4 7 7 9 7 7 9 10 11 6 6 7 11 6 6 12 11 14 9 6 4 5
Wind_Direction
80 59 61 66 72 77 62 68 102 78 77 177 194 221 251 268 293 309 313 336 327 276 244 239 241 239 230 214 216 241 249 253 248 245 246 256 247 252 257 261 261 269 263 251 261 275 279 277 279 276 277 272 264 257 258 259 257 263 264 259 257 257 260 174 126 107 95 41 5 358 265 250 248 258 259 262 263 260 282 309 275 293 311 286 278
30 44 55 77 84 85 72 54 48 63 176 185 198 221 232 244 250 256 254 242 232 246 251 235 234 236 224 206 221 242 246 245 244 241 244 245 256 257 260 268 283 285 277 271 276 278 281 280 274 267 267 271 273 270 263 261 267 272 271 271 266 261 222 106 116 113 86 5 323 283 271 262 260 259 259 263 265 261 256 265 309 317 293 284 283
31 41 32 22 82 84 93 57 95 187 189 201 218 233 242 243 244 252 255 243 228 230 245 251 235 237 233 212 235 248 247 245 242 227 231 234 236 245 253 267 269 273 267 275 281 286 282 282 274 270 265 270 277 277 278 279 284 278 275 267 280 201 130 112 97 100 123 48 332 313 299 284 270 265 269 269 270 266 264 262 256 263 280 264 280
36 49 52 6 43 108 109 112 153 190 182 222 227 252 257 253 254 256 260 254 240 232 240 243 244 238 237 239 243 246 245 249 245 231 226 226 226 247 255 259 262 254 261 261 265 273 275 274 273 271 273 273 280 284 287 288 290 282 266 266 192 134 121 116 94 65 33 31 31 30 43 17 317 276 285 291 286 277 273 269 262 265 277 285 293
37 30 41 48 43 71 83 102 166 175 174 213 240 249 251 259 263 263 267 271 264 244 238 243 241 237 237 238 242 245 247 245 240 223 221 229 228 226 245 250 257 266 264 265 266 264 265 262 265 263 269 277 279 287 288 290 285 273 252 196 147 136 126 126 135 116 132 103 58 52 30 5 9 301 303 287 277 264 256 251 262 281 302 308 319
27 25 21 38 34 41 61 151 182 127 242 266 267 269 264 266 269 273 271 272 271 256 241 241 239 239 232 231 243 248 248 247 243 222 216 218 227 227 226 233 232 231 234 237 240 257 259 260 260 261 264 275 278 276 280 280 264 233 196 158 137 134 127 135 113 95 89 92 85 62 33 18 15 11 290 275 225 209 185 228 339 355 17 0 349
4 17 21 22 24 6 90 352 358 15 341 312 291 259 258 266 271 274 274 270 267 258 258 253 245 239 241 244 247 251 251 251 251 224 222 218 230 241 248 240 241 226 231 233 231 231 244 247 243 249 256 264 270 267 265 259 255 205 155 144 137 133 131 114 97 75 65 82 79 53 40 17 10 28 238 143 134 138 124 85 72 49 28 24 3
18 33 7 2 350 330 334 10 12 11 349 327 292 299 301 286 281 277 274 273 266 261 260 258 255 248 240 244 244 248 249 247 258 256 224 221 230 227 217 231 242 243 243 233 223 225 224 226 228 246 246 243 250 253 243 228 222 160 140 140 143 135 126 120 108 92 76 58 82 73 42 19 18 58 164 144 125 109 96 82 66 54 44 29 10
10 357 349 337 313 304 354 12 14 358 320 310 318 324 310 314 285 278 273 267 266 265 266 263 259 257 249 239 241 240 245 241 261 256 239 236 227 226 239 238 234 238 239 234 220 211 209 204 206 230 221 213 223 219 192 180 177 154 148 145 143 132 117 115 98 80 64 68 61 54 32 43 68 85 121 118 106 101 95 81 57 38 21 15 4
337 19 358 349 342 334 355 2 360 340 338 338 340 293 260 250 268 259 263 261 266 272 272 270 267 266 259 251 247 255 268 275 249 252 250 243 245 239 241 249 247 240 232 232 225 207 185 176 198 223 212 194 192 181 174 176 163 150 147 146 138 129 122 120 95 93 97 68 59 75 119 109 94 103 111 102 99 96 89 85 77 61 38 13 1
325 341 314 319 316 345 349 345 348 354 355 293 247 245 259 276 275 272 269 272 278 283 277 274 268 270 265 259 260 266 273 258 253 263 259 249 244 249 247 248 247 239 215 212 204 185 161 169 183 204 191 171 167 175 177 169 158 151 148 145 138 129 122 104 88 84 62 64 38 30 55 141 107 100 101 97 97 97 98 91 73 56 43 22 14
329 328 325 327 326 333 309 287 332 346 251 247 302 270 245 283 284 288 288 293 301 302 291 280 279 275 267 267 271 270 260 255 258 262 261 254 248 249 251 255 253 249 226 217 181 139 152 170 172 185 176 168 164 171 169 157 155 152 146 141 136 124 125 129 77 80 82 91 115 110 115 112 104 97 97 93 94 93 89 76 64 48 38 37 26
349 344 340 353 343 321 316 287 260 264 301 283 266 272 287 287 293 297 294 292 306 313 309 302 293 287 285 288 283 268 259 257 257 259 264 262 257 255 255 259 262 259 250 225 170 151 156 167 174 174 168 164 163 159 159 157 157 153 146 137 125 118 98 88 93 91 91 96 100 114 108 102 99 101 97 92 87 84 82 65 51 43 40 38 36
4 335 322 343 341 319 312 285 241 182 249 266 274 279 281 308 303 281 277 295 307 308 303 301 293 294 295 292 283 273 266 260 263 266 264 265 263 257 257 259 261 256 252 299 261 99 139 166 162 163 161 158 155 159 158 159 158 150 144 137 129 119 117 90 99 108 98 90 104 108 105 98 98 96 93 88 84 81 73 62 50 48 41 36 40
277 271 328 356 359 357 295 294 280 239 243 269 268 240 246 291 278 273 273 296 310 292 300 296 296 302 303 296 285 280 272 271 268 263 266 270 266 258 256 264 268 264 288 289 46 131 161 159 157 156 153 155 156 160 160 158 152 145 140 136 128 117 110 110 107 92 93 101 106 103 97 93 95 93 89 84 81 78 71 64 60 49 47 45 41
301 322 344 347 22 18 334 296 288 284 270 250 230 284 27 7 286 277 291 313 307 301 296 294 298 306 304 288 292 283 277 276 273 274 272 270 264 259 254 262 271 260 252 279 215 145 145 152 152 154 151 154 157 158 159 155 149 140 141 137 128 122 119 115 87 87 95 100 99 96 96 94 94 89 84 81 77 73 69 67 65 69 60 48 40
309 346 354 354 16 30 341 331 295 290 267 257 283 44 27 332 286 285 304 344 333 304 286 295 316 321 308 307 310 304 288 279 279 275 275 273 268 263 258 258 252 239 225 225 185 130 152 151 148 151 151 152 154 156 158 150 145 148 146 133 129 117 112 106 83 91 99 103 106 105 99 91 94 87 83 79 76 75 75 75 72 69 65 62 55
45 347 359 359 32 29 331 302 325 312 281 285 340 35 34 290 293 308 329 12 352 320 301 307 318 321 316 311 313 312 294 283 280 271 274 272 266 258 254 243 231 214 206 197 152 145 152 148 144 142 147 154 156 158 154 150 149 152 142 129 115 108 103 104 106 103 107 108 106 102 99 100 92 87 83 79 78 81 80 81 79 72 70 65 59
77 81 343 346 29 31 312 342 354 336 315 326 26 29 353 295 297 304 323 17 342 323 327 321 339 335 325 325 325 328 308 287 289 282 271 280 266 255 236 225 215 202 174 151 160 154 150 149 147 146 146 151 157 154 146 145 149 143 132 113 107 101 101 98 83 89 104 105 107 105 100 96 91 86 82 80 76 81 81 79 79 74 69 67 64
71 78 147 314 10 65 24 353 22 307 250 285 46 37 343 313 306 302 317 341 333 319 324 329 344 343 328 330 333 340 315 283 319 86 262 284 268 208 218 215 193 181 170 163 156 148 144 144 143 141 143 147 149 147 143 137 139 130 115 109 101 100 94 92 99 113 110 114 111 104 95 91 90 88 87 83 85 81 79 78 73 72 71 67 64
85 86 65 14 26 350 353 37 308 250 322 324 33 63 358 306 287 298 337 353 342 327 327 341 354 4 357 348 27 60 7 359 64 89 71 134 227 209 191 182 170 164 166 159 147 141 142 139 139 137 131 130 132 135 140 138 123 117 105 102 96 93 99 100 101 108 114 110 110 105 97 91 90 88 84 79 80 79 78 76 74 72 71 69 66
81 84 80 53 51 353 353 348 70 355 335 350 347 66 82 80 67 47 17 31 3 352 25 42 28 48 17 61 74 69 64 49 75 75 100 104 121 147 148 152 152 153 157 150 142 138 133 131 128 123 127 124 111 127 126 122 111 104 106 96 96 98 107 105 108 118 112 113 112 100 92 91 92 91 82 76 79 81 77 77 73 71 69 66 65
98 86 82 64 65 64 329 12 26 74 321 317 340 50 77 69 38 30 66 70 67 55 59 57 60 65 74 75 77 86 86 78 68 83 96 98 114 122 128 134 138 143 144 142 135 132 128 125 122 122 121 121 117 123 129 119 114 90 94 96 93 113 101 101 113 113 120 118 110 98 92 93 95 92 88 81 79 79 78 74 72 71 67 64 63
41 80 67 75 63 71 353 2 40 44 38 14 10 43 69 62 50 37 54 73 80 73 69 63 70 71 71 83 88 77 72 76 71 73 86 100 111 118 123 128 132 133 134 133 127 126 123 121 120 122 120 121 125 129 135 127 125 113 101 102 114 96 100 103 111 121 120 122 112 91 94 93 94 92 88 83 80 77 74 70 72 70 67 65 64
68 87 70 66 53 52 56 56 45 59 80 103 84 18 38 64 78 84 66 65 79 71 71 69 70 64 68 80 76 76 78 79 82 90 98 102 108 111 114 116 119 121 115 128 125 122 117 122 123 120 126 128 125 137 134 130 121 121 118 117 104 100 94 108 121 119 117 115 106 88 91 94 94 95 87 85 78 76 72 71 70 67 67 65 64
33 82 69 48 35 45 53 82 96 151 75 89 45 21 24 21 52 49 66 66 52 57 66 74 75 67 72 73 77 79 78 84 87 86 96 105 102 104 108 113 116 120 121 127 127 124 128 125 125 127 119 133 138 140 137 131 134 128 119 107 99 106 114 114 118 118 117 116 102 86 89 90 92 91 89 85 79 75 76 72 72 66 66 64 63
50 68 58 68 65 18 50 59 69 69 68 24 40 50 258 100 37 26 49 52 66 60 60 72 75 79 86 89 89 90 86 83 85 88 94 100 102 103 110 113 115 118 122 127 126 128 127 131 128 135 140 134 147 139 137 144 134 128 121 113 113 115 109 109 112 115 117 117 103 83 87 88 88 87 87 84 81 79 77 77 74 73 70 69 68
76 61 66 23 67 21 49 66 61 58 59 101 125 68 18 357 18 6 22 24 66 63 53 57 69 78 82 85 84 93 97 102 99 95 93 101 102 104 104 111 117 121 124 128 128 129 131 128 140 143 138 144 141 144 149 134 129 120 109 114 115 119 113 112 116 112 114 114 106 86 83 85 84 85 84 82 81 79 78 73 74 73 72 71 70
44 66 74 20 20 52 27 12 71 79 74 76 92 102 32 346 12 12 351 285 85 102 56 61 71 84 85 88 82 78 97 97 97 97 92 91 100 104 106 122 129 133 130 128 128 129 128 137 139 138 139 141 142 139 132 132 119 119 107 101 116 106 110 116 120 126 127 116 114 97 80 78 82 81 80 81 80 79 76 74 72 71 71 69 69
47 47 62 73 25 35 22 20 85 97 111 151 117 117 84 88 2 27 349 6 62 76 45 62 72 85 97 104 95 89 70 73 76 86 98 107 106 110 125 129 130 130 120 127 130 130 135 138 141 138 143 135 148 146 128 126 118 134 124 116 98 92 97 106 115 119 119 123 117 105 76 78 78 78 77 79 80 79 77 75 73 71 70 69 68
76 49 85 92 56 28 26 51 150 129 131 157 128 146 123 84 60 42 52 0 7 35 48 59 69 90 101 97 106 101 97 96 99 102 109 113 119 123 130 128 124 124 132 136 135 137 136 139 144 143 143 143 140 136 125 131 130 104 108 100 98 106 109 106 100 105 123 124 118 105 87 70 73 72 74 75 78 77 78 77 75 72 71 70 68
96 149 107 76 53 4 8 27 41 145 147 163 136 137 122 103 71 59 45 57 55 61 38 60 93 97 90 94 99 108 115 111 104 104 109 114 120 125 128 132 136 131 134 139 137 137 138 142 148 151 153 146 138 130 125 122 114 122 99 118 112 104 104 106 113 138 138 125 116 110 100 84 66 68 69 73 74 76 77 76 75 74 73 72 72
143 147 81 64 30 358 298 38 228 123 127 151 136 129 109 97 92 81 47 31 58 60 73 74 91 100 111 121 127 125 115 113 116 116 115 120 126 124 127 127 130 136 136 137 141 143 141 141 147 143 133 143 136 134 124 119 130 125 101 104 104 106 108 107 110 109 127 117 116 117 110 89 78 65 67 69 71 75 75 76 76 75 74 74 74
186 144 62 55 112 131 84 109 58 177 132 171 135 126 118 111 99 92 81 60 72 70 107 106 103 103 112 118 117 117 118 119 118 118 121 121 123 125 129 134 135 137 138 136 141 139 138 144 156 142 134 127 132 132 123 125 111 100 120 113 111 117 103 118 124 128 115 144 134 117 112 108 97 83 78 68 74 73 76 77 76 76 77 77 76
172 125 197 212 130 104 104 128 129 220 149 170 137 137 108 108 108 101 101 95 77 84 92 101 102 112 113 121 123 126 126 127 125 123 121 125 126 130 133 134 136 137 137 140 140 141 151 148 141 139 148 136 132 135 125 123 124 nan 131 124 125 110 116 132 128 122 143 140 131 145 131 131 125 124 97 84 77 76 77 75 77 80 79 80 78
226 228 236 186 201 172 126 218 274 327 206 153 164 148 135 128 126 111 108 89 91 90 95 100 107 107 116 118 120 121 121 124 125 125 131 119 129 129 132 136 135 136 141 148 136 136 132 139 140 131 129 134 143 128 122 118 122 122 118 99 114 104 105 124 106 118 146 128 142 137 142 140 137 140 126 129 101 78 66 73 77 76 79 77 81
243 247 241 219 216 208 152 268 332 247 185 198 173 154 140 119 95 97 104 105 105 102 105 101 107 110 110 114 113 115 118 118 121 120 116 127 128 129 129 131 137 151 137 129 113 131 139 135 149 132 143 138 130 130 122 118 109 99 82 124 140 124 125 104 116 150 145 151 128 124 130 153 126 107 116 135 131 96 59 69 70 73 69 75 78
242 248 237 227 229 211 163 205 217 200 187 172 160 134 141 130 122 122 103 103 104 111 116 114 118 114 109 115 112 115 116 119 122 124 120 120 121 121 130 131 135 127 112 115 123 121 104 119 136 141 136 129 112 134 115 109 113 115 134 145 125 118 124 118 143 129 137 138 156 159 163 147 175 172 168 145 144 132 93 55 56 61 52 55 63
208 247 237 217 222 203 206 216 175 206 182 173 152 167 149 124 141 123 127 123 123 125 115 117 109 105 119 117 112 112 118 117 120 124 125 126 128 131 127 126 142 139 137 147 136 150 155 142 117 143 139 117 133 137 137 124 133 132 125 152 140 142 142 150 103 120 137 173 157 121 162 165 175 164 136 153 195 167 156 143 66 58 39 29 39
214 233 239 236 227 233 219 182 176 202 185 164 144 148 141 135 132 136 122 124 129 127 123 121 124 130 124 111 115 121 118 120 120 127 129 124 121 121 125 113 124 155 137 129 150 126 145 123 128 132 103 103 115 126 119 125 149 155 160 159 148 146 146 142 135 118 129 121 139 115 202 190 192 169 192 177 197 185 158 165 159 139 51 27 12
232 245 236 242 239 235 242 195 185 205 168 149 141 148 153 149 147 129 134 133 135 133 125 129 120 133 124 127 119 122 120 120 123 123 128 128 125 124 118 115 110 115 108 109 137 145 135 136 126 116 122 123 134 149 146 148 166 157 155 168 160 125 172 108 100 104 106 168 148 163 168 198 213 215 207 204 179 213 182 213 163 167 170 52 33
237 250 247 245 221 246 247 212 193 189 175 159 158 163 163 160 147 150 155 159 152 132 149 128 148 158 148 134 121 129 117 113 114 119 114 109 113 114 112 113 116 111 112 117 115 108 127 113 136 132 138 148 163 161 174 144 118 163 149 180 193 159 134 111 98 109 124 180 191 172 133 235 241 241 227 215 229 197 227 206 232 207 183 188 130
247 250 247 249 231 226 226 216 196 188 180 188 161 172 164 168 160 183 147 176 160 147 167 162 171 157 137 134 142 132 111 103 98 98 97 92 103 102 119 95 91 72 73 75 84 99 109 138 131 185 151 145 179 167 166 151 164 172 187 164 132 225 148 129 148 146 160 155 178 167 156 242 230 231 257 244 270 264 255 235 252 257 259 214 161
238 240 242 259 226 217 227 223 210 191 193 203 173 177 190 186 180 179 186 181 184 191 198 179 172 205 216 171 152 120 93 85 76 58 58 115 89 80 36 46 91 87 83 85 93 106 123 123 161 173 177 110 137 194 182 181 172 164 146 165 121 352 107 114 109 150 165 150 143 268 240 261 272 344 280 272 248 264 259 264 250 282 297 300 301
236 242 234 242 225 243 235 232 223 207 199 209 192 205 207 198 187 192 194 194 201 189 190 175 179 209 204 289 304 6 63 72 40 67 341 342 51 117 153 33 41 52 59 81 88 97 123 186 179 147 163 154 194 196 188 201 196 184 195 162 175 174 150 152 163 149 147 173 213 nan 164 228 242 231 228 232 258 249 257 265 260 269 295 292 289
239 238 238 241 243 253 249 234 226 214 203 218 210 207 201 202 194 188 185 183 203 186 178 195 177 191 71 281 300 346 346 344 5 26 314 334 332 295 112 89 4 92 88 110 141 156 117 131 181 155 186 187 160 162 233 189 223 197 230 248 168 184 149 158 139 170 150 156 207 196 199 265 275 294 309 287 257 245 259 292 276 268 262 267 276
239 238 235 249 245 258 256 244 232 216 219 211 219 209 205 200 201 185 192 197 196 203 177 190 214 170 209 251 290 317 331 352 348 352 336 330 311 307 138 99 112 359 115 133 111 96 122 162 174 196 167 192 162 170 178 217 185 193 224 210 177 190 177 125 166 144 164 161 168 240 239 207 278 273 277 286 292 273 256 249 268 268 273 285 290
245 241 232 243 245 253 257 247 228 221 222 209 216 209 207 206 191 195 212 206 182 219 199 212 214 206 230 260 282 317 334 354 339 331 7 357 48 47 87 114 120 129 123 113 120 145 190 176 172 189 192 166 177 176 170 195 223 203 193 178 271 224 173 178 159 176 193 168 178 211 246 226 224 232 236 271 278 281 275 287 296 282 279 275 256
245 240 233 241 244 248 252 245 233 220 230 232 217 208 205 205 194 209 207 215 187 189 231 218 217 223 246 247 276 316 333 346 353 351 11 25 46 77 82 110 119 136 121 127 114 162 137 182 158 172 172 156 172 200 169 177 165 241 208 193 184 177 192 243 257 155 167 185 216 220 213 224 210 227 217 235 269 297 305 275 269 282 297 299 286
238 244 237 239 246 245 251 252 243 222 234 240 222 214 209 204 193 218 219 233 186 185 200 241 240 240 233 264 265 282 343 353 353 8 3 38 57 71 81 82 104 107 114 152 156 188 149 149 134 124 188 190 195 185 186 181 183 190 229 216 190 200 177 185 180 200 225 167 196 198 252 249 227 242 212 232 241 281 251 287 307 300 312 296 290
229 243 239 239 247 250 253 254 250 229 237 241 234 225 215 204 208 218 205 241 252 241 221 231 240 242 246 278 271 292 345 350 360 358 15 31 42 72 88 71 94 129 115 147 125 119 79 79 58 208 167 168 160 219 190 185 200 187 188 223 165 229 223 194 201 195 192 186 221 185 206 262 286 257 246 238 209 251 290 294 286 264 284 321 314